When you browse on this site, cookies collect data to enhance your experience and personalize the content and advertising you see.
Visit our Privacy Policy to learn more. By continuing to use the site, you agree to this use of cookies and data.

Hourly Weather Öskemen

Today, 15 August, Saturday

Time Temperature Precipitation Wind Pressure Humidity
00:00 +14°C° 0 mm 0 mps 726 mmHg 84%
01:00 +13°C° 0 mm 0 mps 726 mmHg 85%
02:00 +13°C° 0 mm 0 mps 726 mmHg 86%
03:00 +12°C° 0 mm 0 mps 726 mmHg 87%
04:00 +12°C° 0 mm 0 mps 726 mmHg 88%
05:00 +12°C° 0 mm 0 mps 726 mmHg 88%
06:00 +13°C° 0 mm 0 mps 727 mmHg 86%
07:00 +15°C° 0 mm 0 mps 727 mmHg 79%
08:00 +19°C° 0 mm 1 mps 727 mmHg 71%
09:00 +21°C° 0 mm 1 mps 727 mmHg 63%
10:00 +21°C° 0 mm 2 mps 727 mmHg 56%
11:00 +24°C° 0 mm 3 mps 727 mmHg 48%
12:00 +25°C° 0 mm 4 mps 727 mmHg 40%
13:00 +26°C° 0 mm 4 mps 727 mmHg 38%
14:00 +26°C° 0 mm 4 mps 727 mmHg 35%
15:00 +27°C° 0 mm 5 mps 726 mmHg 33%
16:00 +26°C° 0 mm 5 mps 727 mmHg 34%
17:00 +25°C° 0 mm 5 mps 727 mmHg 34%
18:00 +23°C° 0 mm 5 mps 727 mmHg 36%
19:00 +21°C° 0 mm 3 mps 727 mmHg 43%
20:00 +18°C° 0 mm 2 mps 727 mmHg 50%
21:00 +16°C° 0 mm 1 mps 727 mmHg 57%
22:00 +15°C° 0 mm 1 mps 727 mmHg 60%
23:00 +14°C° 0 mm 1 mps 727 mmHg 64%

Tomorrow, 16 August, Sunday

Time Temperature Precipitation Wind Pressure Humidity
00:00 +13°C° 0 mm 1 mps 727 mmHg 67%
01:00 +12°C° 0 mm 0 mps 727 mmHg 70%
02:00 +11°C° 0 mm 0 mps 727 mmHg 72%
03:00 +11°C° 0 mm 0 mps 726 mmHg 75%
04:00 +10°C° 0 mm 0 mps 726 mmHg 75%
05:00 +10°C° 0 mm 0 mps 726 mmHg 76%
06:00 +10°C° 0 mm 0 mps 726 mmHg 77%
07:00 +14°C° 0 mm 1 mps 727 mmHg 67%
08:00 +18°C° 0 mm 1 mps 727 mmHg 58%
09:00 +20°C° 0 mm 1 mps 727 mmHg 48%
10:00 +22°C° 0 mm 1 mps 727 mmHg 43%
11:00 +24°C° 0 mm 1 mps 726 mmHg 37%
12:00 +26°C° 0 mm 2 mps 726 mmHg 32%
13:00 +27°C° 0 mm 2 mps 726 mmHg 29%
14:00 +28°C° 0 mm 2 mps 726 mmHg 26%
15:00 +29°C° 0 mm 3 mps 726 mmHg 23%
16:00 +29°C° 0 mm 2 mps 725 mmHg 25%
17:00 +28°C° 0 mm 2 mps 725 mmHg 26%
18:00 +28°C° 0 mm 2 mps 725 mmHg 28%
19:00 +25°C° 0 mm 2 mps 725 mmHg 38%
20:00 +21°C° 0 mm 2 mps 725 mmHg 48%
21:00 +19°C° 0 mm 1 mps 724 mmHg 57%
22:00 +18°C° 0 mm 1 mps 724 mmHg 61%
23:00 +16°C° 0 mm 1 mps 724 mmHg 64%

Day after tomorrow, 17 August, Monday

Time Temperature Precipitation Wind Pressure Humidity
00:00 +16°C° 0 mm 1 mps 724 mmHg 68%
01:00 +15°C° 0 mm 1 mps 723 mmHg 68%
02:00 +15°C° 0 mm 1 mps 723 mmHg 68%
03:00 +14°C° 0 mm 1 mps 723 mmHg 68%
04:00 +14°C° 0 mm 1 mps 723 mmHg 68%
05:00 +14°C° 0 mm 1 mps 723 mmHg 67%
06:00 +14°C° 0 mm 1 mps 723 mmHg 66%
07:00 +18°C° 0 mm 1 mps 723 mmHg 56%
08:00 +22°C° 0 mm 1 mps 723 mmHg 46%
09:00 +25°C° 0 mm 1 mps 723 mmHg 36%
10:00 +27°C° 0 mm 1 mps 723 mmHg 30%
11:00 +28°C° 0 mm 2 mps 724 mmHg 25%
12:00 +30°C° 0 mm 2 mps 724 mmHg 19%
13:00 +31°C° 0 mm 1 mps 723 mmHg 18%
14:00 +32°C° 0 mm 1 mps 723 mmHg 17%
15:00 +33°C° 0 mm 1 mps 723 mmHg 17%
16:00 +34°C° 0 mm 2 mps 723 mmHg 18%
17:00 +32°C° 0 mm 2 mps 722 mmHg 19%
18:00 +33°C° 0 mm 3 mps 722 mmHg 21%
19:00 +29°C° 0 mm 3 mps 721 mmHg 27%
20:00 +26°C° 0 mm 3 mps 721 mmHg 33%
21:00 +22°C° 0 mm 3 mps 721 mmHg 39%
22:00 +21°C° 0 mm 3 mps 721 mmHg 39%
23:00 +21°C° 0 mm 3 mps 720 mmHg 40%

18 August, Tuesday

Time Temperature Precipitation Wind Pressure Humidity
00:00 +20°C° 0 mm 3 mps 720 mmHg 41%
01:00 +19°C° 0 mm 3 mps 720 mmHg 41%
02:00 +19°C° 0 mm 2 mps 720 mmHg 41%
03:00 +19°C° 0 mm 2 mps 720 mmHg 41%
04:00 +18°C° 0 mm 2 mps 720 mmHg 43%
05:00 +18°C° 0 mm 2 mps 720 mmHg 44%
06:00 +18°C° 0 mm 2 mps 719 mmHg 45%
07:00 +20°C° 0 mm 2 mps 720 mmHg 41%
08:00 +24°C° 0 mm 3 mps 720 mmHg 37%
09:00 +26°C° 0 mm 3 mps 721 mmHg 33%
10:00 +27°C° 0 mm 4 mps 721 mmHg 32%
11:00 +28°C° 0 mm 5 mps 722 mmHg 31%
12:00 +29°C° 0 mm 6 mps 723 mmHg 30%
13:00 +27°C° 0 mm 6 mps 722 mmHg 34%
14:00 +26°C° 0 mm 6 mps 722 mmHg 38%
15:00 +24°C° 0 mm 7 mps 722 mmHg 42%
16:00 +24°C° 0 mm 7 mps 722 mmHg 44%
17:00 +24°C° 0 mm 7 mps 722 mmHg 47%
18:00 +24°C° 0 mm 7 mps 722 mmHg 49%
19:00 +21°C° 0.8 mm 5 mps 722 mmHg 62%
20:00 +19°C° 0.8 mm 4 mps 723 mmHg 75%
21:00 +16°C° 0.8 mm 2 mps 723 mmHg 88%
22:00 +16°C° 0.8 mm 2 mps 723 mmHg 90%
23:00 +16°C° 0.8 mm 2 mps 723 mmHg 91%

19 August, Wednesday

Time Temperature Precipitation Wind Pressure Humidity
00:00 +15°C° 0.8 mm 1 mps 723 mmHg 92%
01:00 +15°C° 0.1 mm 1 mps 723 mmHg 92%
02:00 +15°C° 0.1 mm 1 mps 723 mmHg 92%
03:00 +14°C° 0.1 mm 1 mps 723 mmHg 92%
04:00 +14°C° 0 mm 1 mps 723 mmHg 91%
05:00 +14°C° 0 mm 1 mps 723 mmHg 91%
06:00 +14°C° 0 mm 1 mps 723 mmHg 91%
07:00 +16°C° 0.1 mm 1 mps 724 mmHg 84%
08:00 +19°C° 0.1 mm 1 mps 724 mmHg 76%
09:00 +21°C° 0.1 mm 2 mps 724 mmHg 69%
10:00 +24°C° 0.2 mm 3 mps 724 mmHg 55%
11:00 +26°C° 0.2 mm 4 mps 723 mmHg 41%
12:00 +29°C° 0.2 mm 5 mps 723 mmHg 28%
13:00 +29°C° 0 mm 5 mps 723 mmHg 26%
14:00 +29°C° 0 mm 5 mps 723 mmHg 25%
15:00 +29°C° 0 mm 5 mps 723 mmHg 23%
16:00 +29°C° 0 mm 5 mps 722 mmHg 23%
17:00 +29°C° 0 mm 4 mps 722 mmHg 23%
18:00 +29°C° 0 mm 3 mps 722 mmHg 23%
19:00 +26°C° 0 mm 3 mps 722 mmHg 30%
20:00 +22°C° 0 mm 3 mps 722 mmHg 38%
21:00 +19°C° 0 mm 3 mps 722 mmHg 45%
22:00 +18°C° 0.1 mm 2 mps 722 mmHg 51%
23:00 +16°C° 0.1 mm 1 mps 722 mmHg 58%

20 August, Thursday

Time Temperature Precipitation Wind Pressure Humidity
00:00 +15°C° 0.1 mm 1 mps 722 mmHg 64%
01:00 +15°C° 0 mm 1 mps 722 mmHg 63%
02:00 +15°C° 0 mm 1 mps 722 mmHg 62%
03:00 +14°C° 0 mm 2 mps 722 mmHg 61%
04:00 +14°C° 0.1 mm 2 mps 722 mmHg 61%
05:00 +14°C° 0.1 mm 2 mps 722 mmHg 62%
06:00 +14°C° 0.1 mm 2 mps 722 mmHg 62%
07:00 +17°C° 0.1 mm 2 mps 722 mmHg 58%
08:00 +19°C° 0.1 mm 2 mps 723 mmHg 53%
09:00 +21°C° 0.1 mm 3 mps 723 mmHg 48%
10:00 +23°C° 0 mm 4 mps 723 mmHg 40%
11:00 +26°C° 0 mm 4 mps 723 mmHg 32%
12:00 +27°C° 0 mm 5 mps 723 mmHg 25%
13:00 +28°C° 0 mm 5 mps 723 mmHg 25%
14:00 +28°C° 0 mm 4 mps 723 mmHg 25%
15:00 +28°C° 0 mm 4 mps 723 mmHg 25%
16:00 +27°C° 0.1 mm 3 mps 722 mmHg 28%
17:00 +27°C° 0.1 mm 3 mps 722 mmHg 32%
18:00 +26°C° 0.1 mm 2 mps 722 mmHg 35%
19:00 +23°C° 0 mm 2 mps 722 mmHg 44%
20:00 +20°C° 0 mm 2 mps 722 mmHg 52%
21:00 +17°C° 0 mm 2 mps 722 mmHg 61%
22:00 +16°C° 0 mm 2 mps 722 mmHg 63%
23:00 +15°C° 0 mm 2 mps 722 mmHg 66%
Show more